Hourly Data Report for September 07, 2017

All times are specified in Local Standard Time (LST). Add 1 hour to adjust for Daylight Saving Time where and when it is observed.

ALGONQUIN PARK EAST GATE
ONTARIO

45°32'00.000" N
78°16'00.000" W
397.00 m
6080192
71581
TNK

Download Data

Hourly Data (September 2017)
Hourly Data Report for September 7, 2017
Temp Definition
°C
Dew Point Temp Definition
°C
Rel Hum Definition
%
Wind Dir Definition
10's deg

Wind Spd Definition
km/h
Visibility Definition
km
Stn Press Definition
kPa
Hmdx Definition


Wind Chill Definition


Weather Definition


TIME
00:00 8.4 7.1 91 LegendMM LegendMM   96.42     LegendNANA
01:00 8.4 7.1 92 LegendMM LegendMM   96.38     LegendNANA
02:00 7.6 6.4 92 LegendMM LegendMM   96.33     LegendNANA
03:00 7.1 5.9 92 LegendMM LegendMM   96.27     LegendNANA
04:00 7.7 6.6 93 LegendMM LegendMM   96.25     LegendNANA
05:00 8.0 7.0 93 LegendMM LegendMM   96.23     LegendNANA
06:00 7.3 6.3 93 LegendMM LegendMM   96.23     LegendNANA
07:00 8.6 7.6 93 LegendMM LegendMM   96.19     LegendNANA
08:00 10.6 9.5 93 LegendMM LegendMM   96.20     LegendNANA
09:00 13.3 10.3 82 LegendMM LegendMM   96.21     LegendNANA
10:00 14.0 8.0 67 LegendMM LegendMM   96.19     LegendNANA
11:00 14.5 7.3 62 LegendMM LegendMM   96.17     LegendNANA
12:00 16.9 6.7 51 LegendMM LegendMM   96.12     LegendNANA
13:00 17.1 5.9 48 LegendMM LegendMM   96.10     LegendNANA
14:00 11.2 8.8 85 LegendMM LegendMM   96.16     LegendNANA
15:00 14.8 10.8 77 LegendMM LegendMM   96.13     LegendNANA
16:00 14.3 8.5 68 LegendMM LegendMM   96.18     LegendNANA
17:00 13.8 7.9 67 LegendMM LegendMM   96.20     LegendNANA
18:00 12.1 8.9 81 LegendMM LegendMM   96.23     LegendNANA
19:00 9.8 8.1 90 LegendMM LegendMM   96.27     LegendNANA
20:00 9.0 7.7 92 LegendMM LegendMM   96.35     LegendNANA
21:00 10.0 8.5 91 LegendMM LegendMM   96.39     LegendNANA
22:00 10.5 8.4 87 LegendMM LegendMM   96.42     LegendNANA
23:00 9.8 7.4 85 LegendMM LegendMM   96.47     LegendNANA

Notes on Data Quality.

Legend

  • E = Estimated
  • M = Missing
  • NA = Not Available
  • ‡ = Partner data that is not subject to review by the National Climate Archives
Date modified: